Temperature
20 20 20 20 20 20 20 21 21 21 21 21 21 20 19 18 18 17 17 16 16 16 16 16 16 16 15 15 16 15 15 15 15 15 15 14 14 14 14 14 13 13 13 13
19 19 19 19 20 20 20 20 20 21 21 21 20 19 19 18 17 17 17 16 16 16 16 15 15 15 15 15 15 15 15 15 15 15 14 14 14 14 14 13 13 13 13 13
19 19 19 19 20 20 20 20 20 20 20 20 20 19 18 18 17 17 16 16 16 15 15 15 15 15 15 15 15 15 15 15 14 14 14 14 14 14 13 13 13 13 13 13
18 18 18 20 20 20 19 19 20 20 20 19 19 18 17 17 17 17 16 16 15 15 15 15 15 15 15 15 15 15 15 14 14 14 14 14 14 13 13 13 13 13 13 13
18 18 19 19 19 19 19 19 19 19 19 18 18 17 18 17 16 16 15 15 15 15 15 15 15 15 15 15 15 14 14 14 14 14 14 14 13 13 13 13 13 13 12 12
17 17 18 19 19 18 18 18 18 18 18 18 17 19 19 17 16 15 15 15 15 15 15 15 15 15 14 14 14 14 14 14 14 14 14 13 13 13 13 13 12 12 12 12
17 17 18 18 17 17 18 18 17 17 17 17 17 18 17 16 15 15 15 15 15 14 15 15 15 14 14 14 14 14 14 14 14 14 14 13 13 13 13 12 12 12 12 12
17 16 17 17 17 17 18 17 16 16 16 16 16 15 15 15 15 14 14 14 14 14 14 14 14 14 13 14 14 14 14 14 13 13 13 13 13 13 12 12 12 12 12 11
17 17 16 16 16 16 15 16 15 15 15 15 15 15 14 14 14 14 14 14 14 14 14 14 14 14 13 13 14 14 14 14 13 13 13 13 13 12 12 12 12 11 11 11
16 16 15 15 14 14 14 14 14 14 14 14 14 14 14 14 14 13 13 13 13 13 13 13 13 13 13 13 13 13 13 13 13 13 12 12 12 12 12 11 11 11 11 11
15 16 15 14 14 14 14 13 13 13 13 13 13 13 13 13 13 13 13 13 13 13 13 13 13 13 13 13 13 13 13 13 12 12 12 12 12 12 12 12 12 11 11 11
15 16 15 15 14 13 13 13 13 13 13 13 13 12 12 13 12 12 12 13 13 12 12 12 12 12 13 13 13 12 12 12 12 12 12 12 12 12 12 11 11 11 11 11
14 13 13 13 13 13 12 12 12 12 12 12 12 12 12 12 12 12 12 12 12 12 12 12 12 12 12 12 12 12 12 12 12 12 12 12 11 11 11 11 11 11 11 11
12 12 12 12 12 12 12 12 12 12 11 11 11 11 11 11 11 11 11 12 12 12 12 11 11 11 12 12 12 12 12 12 12 11 11 11 11 11 11 11 11 10 10 10
11 11 12 11 11 11 11 11 11 11 11 11 11 11 11 11 11 11 11 11 11 11 11 11 11 11 11 11 11 11 11 11 11 11 11 11 11 11 10 10 10 10 10 10
11 11 11 11 11 11 11 11 11 10 10 10 10 10 10 10 10 10 10 10 11 11 11 11 11 11 11 11 11 11 11 11 11 11 10 10 10 10 10 10 9 9 9 9
10 10 10 10 10 10 10 10 10 10 10 10 10 10 10 10 10 10 10 10 10 10 10 10 10 10 10 10 10 10 10 10 10 10 10 10 10 10 10 9 9 9 9 9
10 10 10 10 10 10 9 9 9 9 9 9 9 9 9 9 9 9 9 10 9 10 10 10 10 10 10 10 10 10 10 10 10 10 9 9 9 9 9 9 9 8 8 9
9 9 9 9 9 9 9 9 9 9 9 9 9 9 9 9 9 9 9 9 9 9 9 9 9 9 9 9 9 9 9 9 9 9 9 9 9 9 9 8 8 8 8 8
8 8 8 8 8 8 8 8 8 8 8 8 9 9 9 8 8 9 9 9 9 9 9 9 9 9 9 9 9 9 9 9 9 9 8 8 8 8 8 8 8 8 8 8
8 8 8 8 8 8 8 8 8 8 8 8 8 8 8 8 8 8 8 8 9 9 9 9 9 9 9 9 8 8 8 8 8 8 8 8 8 8 8 8 8 8 7 7
7 7 7 7 7 7 7 7 8 8 8 8 8 8 8 8 8 8 8 8 8 8 8 8 8 8 8 8 8 8 8 8 8 8 8 8 8 8 7 7 7 7 7 7
6 6 6 7 7 7 7 7 7 7 7 7 7 7 8 7 7 7 7 8 8 8 8 8 8 8 8 8 7 7 7 7 7 7 7 7 7 7 7 7 7 7 7 7
6 6 6 6 6 6 6 6 7 7 7 7 7 7 7 7 7 7 7 7 7 7 7 7 7 7 7 7 7 7 7 7 7 7 7 7 7 7 7 7 7 7 7 7
5 5 5 5 6 6 6 6 6 6 6 6 7 7 7 7 7 7 7 7 7 7 7 7 7 7 7 7 7 7 6 7 7 7 7 6 7 6 6 6 6 6 6 6
5 5 5 5 5 5 5 5 5 5 6 6 6 6 6 6 6 6 6 6 6 6 6 6 6 6 6 6 6 6 6 6 6 6 6 6 6 6 6 6 6 6 6 6
4 4 4 4 5 5 5 5 5 5 5 5 5 6 6 6 6 6 6 6 6 6 6 6 6 6 6 6 6 6 6 6 6 6 6 6 5 5 5 5 5 5 5 5
Wind_Speed
7 5 5 8 9 10 12 12 11 10 9 6 4 4 3 3 2 2 2 2 2 2 2 3 4 4 4 5 6 7 8 8 8 8 8 7 7 7 6 6 5 5 5 5
8 7 8 10 11 11 12 12 13 12 10 6 4 4 4 4 3 3 3 3 3 3 3 3 4 4 5 6 6 7 8 8 7 7 7 7 7 7 6 6 6 6 6 6
8 6 8 12 11 12 10 10 11 12 9 5 4 5 5 4 4 5 4 4 4 4 4 4 4 4 5 6 6 7 7 7 7 8 7 7 7 7 6 7 7 6 6 6
6 7 11 5 2 7 9 9 9 8 6 5 5 5 5 5 5 5 5 5 4 4 4 4 4 4 5 5 6 7 8 7 7 8 8 7 7 7 7 7 6 6 6 6
6 9 9 6 4 5 7 7 7 8 7 5 5 5 6 3 4 4 4 4 4 4 4 4 4 4 4 5 6 7 8 8 8 8 8 8 8 8 7 7 6 6 6 6
7 8 8 3 2 3 6 7 4 5 5 4 4 6 4 1 3 4 4 3 3 4 4 3 3 3 4 5 6 7 7 7 7 8 9 9 9 8 7 6 6 6 6 7
12 10 8 1 2 4 6 2 1 3 4 5 6 6 4 3 4 4 4 4 3 3 3 3 3 4 4 5 5 6 6 6 6 7 8 8 8 7 7 7 7 7 7 6
9 10 7 2 4 5 2 3 2 3 4 5 6 5 4 4 4 4 4 4 3 3 3 3 3 4 4 4 4 4 5 5 6 7 7 7 7 7 7 7 7 7 7 6
6 5 1 2 3 2 3 4 4 4 4 5 6 6 5 5 5 5 5 4 3 3 3 3 4 4 4 3 3 4 5 5 5 6 6 6 7 7 7 7 6 6 6 6
6 7 6 5 5 6 5 6 6 6 6 6 7 6 6 6 6 5 5 4 4 4 4 4 4 4 4 3 3 4 5 5 5 6 6 6 6 6 6 7 7 7 7 6
10 8 7 7 7 6 6 6 7 7 6 7 7 7 7 7 7 6 5 4 4 4 4 4 4 4 4 4 4 4 5 5 5 5 5 5 6 5 7 7 7 7 7 7
8 7 7 7 6 7 7 8 8 7 7 7 7 7 7 7 6 6 5 5 5 5 5 4 4 4 4 4 4 5 5 5 4 4 4 5 5 4 2 4 4 6 6 6
10 8 9 10 9 8 9 9 8 8 8 8 8 7 8 7 7 6 6 6 6 5 5 4 4 4 4 4 5 5 5 5 4 4 4 5 5 4 4 2 2 4 5 5
11 10 10 10 9 8 8 8 8 9 9 8 8 7 7 7 7 7 7 6 5 5 5 4 4 4 4 5 5 6 5 5 5 4 5 5 4 5 4 4 4 3 4 5
10 10 10 9 9 9 8 8 8 8 8 8 7 7 7 7 7 7 6 5 5 5 5 4 4 4 4 5 5 6 5 4 5 4 4 4 4 4 4 5 5 4 3 4
8 8 8 9 9 9 9 9 8 9 8 8 8 8 7 7 7 6 5 5 6 6 5 5 5 5 4 5 5 5 5 4 4 5 5 4 5 5 5 5 5 5 5 4
9 9 9 10 10 10 9 9 9 9 8 8 8 8 7 6 6 6 6 6 6 6 6 6 6 5 5 5 5 4 4 5 5 5 5 5 5 5 5 5 5 5 5 5
10 11 11 11 10 10 9 9 8 8 8 8 8 7 7 6 6 6 6 6 5 5 6 6 5 5 5 5 5 4 4 5 6 6 5 5 5 5 5 5 6 6 4 4
9 9 9 9 9 9 9 9 8 8 8 7 7 7 6 6 6 6 5 6 6 6 5 5 5 6 6 5 4 4 5 5 5 5 5 5 5 5 5 5 5 5 5 4
7 7 7 8 7 7 7 7 7 7 6 6 6 6 5 5 5 5 5 5 5 5 5 4 5 5 5 5 5 5 5 5 6 5 5 5 6 6 6 6 6 6 5 5
7 7 7 7 6 6 6 6 6 6 6 5 5 5 5 5 4 4 4 4 5 4 4 4 4 4 5 4 5 5 5 5 5 6 6 6 6 6 6 6 5 5 5 5
7 6 6 6 6 6 6 6 5 5 5 5 4 4 4 4 4 4 4 4 4 3 3 3 4 3 4 4 5 5 5 5 5 5 6 6 6 6 6 6 6 5 5 5
6 6 6 6 6 6 6 5 5 5 4 4 5 5 4 4 3 3 4 3 3 3 3 3 3 3 4 5 5 5 6 6 6 6 6 6 6 6 6 6 6 6 5 5
6 6 6 6 5 5 5 5 5 4 4 4 4 5 4 3 3 3 3 3 3 3 3 3 3 4 5 5 5 5 5 6 6 6 6 5 5 5 5 5 5 5 5 6
5 5 5 5 5 4 4 4 4 4 3 3 4 4 3 3 3 3 3 3 3 3 3 3 3 4 4 4 5 5 5 5 5 5 5 5 5 5 5 5 5 5 5 5
5 5 4 4 4 4 3 3 3 3 3 3 3 3 2 2 3 3 3 3 3 3 3 3 3 3 4 4 4 4 4 4 5 5 5 5 5 5 5 5 6 5 5 5
5 4 4 3 3 3 3 3 3 3 3 3 3 2 2 2 2 2 2 2 3 3 3 3 3 3 3 4 4 4 4 4 4 5 5 5 5 5 5 6 5 5 5 5
Wind_Direction
258 263 249 246 240 232 237 245 252 256 259 270 275 271 266 256 241 223 216 216 219 229 229 226 222 218 215 214 204 200 198 199 200 197 192 193 194 193 193 195 201 196 200 199
247 241 248 251 247 242 243 247 249 254 257 264 270 263 254 249 237 236 234 233 240 245 242 232 225 222 218 213 206 200 201 200 194 193 191 192 196 197 193 195 202 196 202 204
252 239 253 248 239 233 234 238 243 250 256 256 253 250 249 254 245 243 246 250 251 253 252 246 235 222 219 216 207 202 202 197 193 194 192 194 196 196 195 199 202 203 207 208
256 244 243 243 201 225 234 241 242 252 258 255 262 262 256 255 251 254 258 260 261 261 257 257 246 229 218 213 208 205 202 196 195 196 194 197 200 199 202 203 200 208 212 210
240 245 255 238 222 219 227 244 238 240 249 256 270 251 238 233 252 268 266 265 266 265 259 251 239 228 214 210 208 207 206 202 196 196 196 197 200 202 204 203 202 206 208 208
234 243 246 227 157 221 233 238 222 233 245 254 256 250 251 279 264 268 271 266 267 267 255 240 228 215 209 208 208 210 210 209 200 198 198 201 203 202 202 203 206 207 209 213
234 243 251 244 182 195 223 244 154 236 249 247 247 272 291 279 268 263 264 267 262 256 249 237 224 214 216 214 219 218 212 208 202 200 201 204 203 201 199 200 204 209 211 215
227 236 240 155 177 210 262 1 310 273 270 267 271 283 277 269 267 260 259 261 252 247 249 238 223 218 220 225 228 218 204 204 204 203 200 198 196 199 201 200 204 209 212 213
230 239 337 177 208 258 303 295 293 283 283 280 279 281 279 273 268 262 257 254 249 243 245 240 229 225 227 225 221 211 200 203 204 202 201 198 195 197 200 201 208 211 211 213
240 240 244 250 256 271 279 284 295 288 280 275 275 279 279 276 270 264 254 248 246 241 237 235 228 227 231 221 216 210 203 202 200 200 200 200 201 203 203 205 210 213 214 215
244 251 259 254 251 263 275 281 286 286 280 277 276 274 274 275 271 263 251 247 244 244 242 241 231 224 223 222 215 211 203 200 201 203 199 201 203 210 213 216 217 218 218 216
252 255 255 262 265 269 275 280 283 282 283 282 277 274 275 273 269 263 254 247 243 244 242 235 228 223 219 222 220 213 207 202 201 202 200 201 203 207 218 242 219 225 235 231
263 276 274 275 274 268 270 275 277 277 277 281 281 277 275 273 269 263 255 248 240 238 238 232 227 226 217 216 221 215 212 208 205 207 204 204 206 210 211 215 197 218 222 224
258 263 266 266 268 268 269 271 274 278 279 279 280 279 274 270 267 261 255 250 241 234 231 227 227 231 223 213 217 217 216 213 210 208 211 210 212 215 215 214 213 219 213 204
259 253 259 269 272 270 269 270 272 275 280 283 281 276 270 266 264 262 257 247 234 230 229 225 225 230 223 213 213 213 216 217 213 211 210 209 209 213 215 216 216 214 209 193
267 262 260 261 266 270 269 269 270 273 276 275 273 272 271 268 265 260 251 238 230 231 232 230 231 231 222 215 212 213 215 216 218 208 205 204 207 210 212 213 215 214 211 204
265 264 264 264 267 268 268 268 268 269 269 268 269 271 269 261 254 250 245 238 236 239 238 235 233 228 223 216 212 214 212 205 206 210 207 208 211 213 215 216 216 218 218 205
265 267 268 268 269 269 268 269 267 267 267 268 270 267 258 249 248 249 245 239 238 242 243 240 234 229 224 218 216 216 213 209 207 210 211 213 215 215 216 217 218 221 221 200
271 269 267 266 265 262 262 266 268 268 267 264 260 255 252 251 249 246 240 236 236 241 247 242 228 226 223 218 217 214 216 214 210 210 211 207 213 216 216 217 219 220 218 213
277 275 274 272 267 263 265 270 272 270 267 262 254 249 250 252 248 242 238 243 245 250 250 247 230 230 224 212 209 214 216 216 214 212 212 213 216 218 218 219 222 223 222 219
284 282 279 275 271 269 268 269 268 267 268 259 248 246 249 252 246 241 242 251 257 255 246 237 232 230 225 211 208 216 215 216 217 217 215 217 219 221 222 222 222 224 225 225
292 290 286 281 276 275 274 272 270 268 266 261 258 252 246 247 248 248 249 254 258 255 246 238 235 233 225 214 218 219 215 216 218 220 221 221 221 222 225 226 227 227 227 228
292 290 287 284 279 278 279 277 275 269 266 269 268 259 247 243 243 242 254 262 255 259 252 242 241 216 215 222 223 221 218 216 217 220 223 224 225 225 225 227 228 229 229 228
294 293 291 290 285 281 282 285 281 273 270 271 267 265 258 246 248 251 256 253 252 243 245 241 222 217 224 227 225 224 225 223 219 219 222 225 227 227 226 226 227 228 229 229
294 290 287 287 285 284 284 284 284 283 281 281 279 273 264 252 245 246 246 241 242 239 245 232 216 224 231 233 229 228 227 227 223 219 218 222 225 227 227 225 226 227 229 228
300 291 284 280 282 285 282 276 275 277 278 283 285 279 270 262 249 239 238 232 232 236 243 239 232 230 239 240 237 235 234 229 222 221 222 221 221 224 229 228 227 227 229 229
300 293 289 289 289 286 284 280 277 275 274 274 277 277 272 268 261 250 241 236 233 236 240 240 239 240 241 240 239 237 236 236 230 225 223 222 222 223 224 226 227 227 227 225
Height
1515 1515 1516 1516 1517 1517 1517 1514 1516 1513 1513 1512 1514 1517 1518 1519 1520 1521 1522 1523 1523 1524 1524 1525 1526 1526 1528 1529 1531 1532 1534 1536 1538 1540 1542 1543 1545 1546 1547 1548 1549 1550 1550 1551
1516 1515 1516 1516 1514 1514 1514 1513 1512 1511 1511 1512 1514 1516 1518 1518 1519 1520 1520 1521 1521 1522 1522 1522 1523 1524 1525 1526 1527 1529 1531 1533 1535 1537 1538 1540 1542 1543 1544 1545 1546 1547 1548 1549
1515 1514 1515 1513 1508 1509 1511 1510 1510 1510 1509 1511 1513 1514 1515 1516 1517 1518 1518 1519 1519 1519 1520 1520 1520 1521 1522 1523 1524 1526 1528 1530 1531 1534 1535 1537 1539 1540 1541 1542 1543 1544 1545 1546
1516 1516 1520 1505 1503 1505 1507 1507 1508 1508 1509 1511 1512 1513 1514 1514 1515 1515 1516 1516 1517 1517 1517 1517 1518 1518 1519 1520 1521 1523 1525 1526 1528 1530 1532 1534 1535 1537 1538 1539 1540 1541 1542 1543
1516 1514 1507 1503 1504 1505 1506 1506 1505 1507 1508 1510 1511 1511 1511 1512 1513 1513 1514 1514 1514 1514 1515 1515 1515 1515 1516 1517 1518 1520 1521 1523 1525 1527 1528 1530 1531 1533 1534 1536 1537 1538 1539 1540
1515 1515 1510 1500 1502 1504 1506 1505 1504 1505 1506 1508 1509 1506 1507 1509 1510 1511 1511 1511 1511 1511 1511 1512 1512 1512 1513 1514 1515 1516 1518 1520 1521 1523 1525 1526 1528 1529 1531 1532 1533 1534 1535 1536
1511 1509 1500 1500 1503 1504 1508 1502 1503 1504 1505 1506 1506 1506 1507 1507 1508 1508 1508 1508 1508 1508 1509 1509 1509 1510 1510 1511 1512 1513 1514 1516 1518 1519 1521 1523 1524 1526 1527 1528 1530 1531 1532 1532
1506 1507 1503 1500 1502 1502 1501 1502 1503 1503 1504 1505 1505 1505 1505 1505 1505 1505 1505 1505 1505 1505 1506 1506 1507 1507 1508 1508 1509 1510 1511 1512 1514 1516 1518 1519 1521 1522 1523 1525 1526 1527 1528 1529
1500 1500 1499 1500 1501 1502 1502 1502 1502 1502 1502 1503 1502 1502 1502 1502 1502 1502 1502 1502 1502 1503 1503 1503 1504 1505 1505 1505 1506 1507 1508 1509 1511 1512 1514 1515 1517 1518 1519 1520 1522 1523 1524 1524
1499 1497 1499 1500 1500 1500 1501 1501 1501 1501 1500 1500 1500 1499 1499 1499 1499 1499 1499 1499 1499 1499 1499 1500 1501 1501 1502 1502 1503 1504 1505 1506 1508 1509 1510 1512 1513 1514 1515 1516 1517 1518 1519 1520
1496 1496 1497 1497 1498 1498 1498 1498 1498 1498 1498 1497 1497 1496 1496 1496 1496 1495 1495 1495 1495 1496 1496 1496 1497 1497 1498 1499 1500 1501 1502 1503 1504 1505 1507 1508 1509 1510 1511 1512 1513 1514 1515 1516
1493 1493 1494 1494 1495 1496 1496 1495 1495 1495 1494 1494 1493 1493 1492 1492 1492 1491 1491 1491 1491 1492 1492 1492 1493 1493 1494 1495 1496 1498 1499 1500 1501 1502 1503 1504 1505 1506 1507 1508 1509 1510 1511 1512
1492 1492 1492 1492 1492 1492 1492 1492 1491 1491 1490 1490 1489 1489 1488 1488 1487 1487 1487 1487 1487 1488 1488 1488 1489 1489 1490 1491 1493 1494 1495 1496 1497 1498 1499 1500 1501 1502 1503 1504 1505 1506 1506 1507
1489 1490 1489 1488 1488 1488 1488 1488 1487 1487 1486 1486 1485 1485 1484 1483 1483 1483 1483 1483 1483 1484 1484 1485 1485 1485 1486 1487 1489 1490 1492 1493 1493 1494 1495 1496 1497 1498 1499 1500 1500 1501 1502 1503
1485 1486 1485 1484 1484 1484 1484 1483 1483 1482 1481 1481 1480 1480 1479 1479 1478 1478 1479 1479 1479 1479 1480 1481 1481 1481 1482 1483 1484 1486 1487 1489 1490 1491 1492 1493 1493 1494 1495 1496 1496 1497 1497 1498
1481 1481 1481 1480 1480 1479 1479 1478 1477 1477 1477 1476 1476 1475 1474 1474 1474 1474 1474 1475 1475 1475 1476 1476 1477 1478 1479 1480 1481 1482 1483 1484 1485 1486 1488 1488 1489 1490 1491 1492 1492 1493 1493 1493
1477 1476 1476 1475 1475 1475 1474 1473 1472 1471 1471 1471 1471 1470 1470 1469 1469 1469 1470 1470 1471 1471 1472 1472 1473 1474 1475 1476 1477 1478 1479 1480 1481 1482 1483 1484 1485 1486 1487 1487 1488 1488 1489 1489
1473 1472 1472 1471 1470 1469 1469 1468 1467 1466 1466 1465 1465 1465 1464 1464 1464 1464 1465 1466 1466 1466 1467 1468 1468 1469 1470 1471 1473 1474 1475 1476 1477 1478 1479 1480 1481 1482 1482 1483 1483 1484 1484 1484
1467 1467 1466 1465 1465 1464 1463 1462 1462 1461 1461 1460 1459 1459 1459 1459 1459 1460 1460 1461 1461 1461 1462 1463 1464 1465 1466 1467 1468 1469 1470 1471 1472 1474 1475 1476 1477 1477 1478 1478 1479 1479 1480 1480
1462 1461 1461 1460 1459 1459 1458 1457 1457 1456 1455 1455 1454 1454 1454 1454 1454 1455 1455 1456 1456 1457 1458 1458 1459 1460 1461 1463 1464 1465 1466 1467 1468 1469 1470 1471 1472 1472 1473 1474 1474 1475 1475 1475
1457 1457 1456 1455 1454 1453 1453 1452 1451 1451 1450 1450 1450 1450 1449 1450 1450 1451 1451 1451 1452 1453 1453 1454 1455 1456 1457 1458 1459 1460 1461 1462 1463 1464 1466 1467 1467 1468 1468 1469 1469 1470 1470 1471
1453 1452 1451 1450 1449 1448 1448 1447 1447 1446 1446 1446 1445 1445 1445 1445 1446 1446 1447 1447 1447 1448 1448 1449 1450 1451 1453 1454 1455 1455 1456 1457 1458 1459 1461 1462 1462 1463 1463 1464 1464 1465 1465 1466
1449 1448 1447 1446 1445 1444 1443 1443 1442 1442 1441 1441 1441 1441 1441 1441 1441 1442 1442 1443 1443 1444 1444 1445 1446 1447 1448 1449 1449 1450 1451 1452 1453 1454 1455 1456 1457 1458 1458 1459 1459 1460 1460 1460
1446 1444 1443 1442 1441 1440 1439 1438 1437 1437 1437 1437 1437 1437 1436 1437 1437 1438 1438 1439 1439 1440 1440 1440 1441 1442 1443 1444 1445 1445 1446 1447 1448 1449 1450 1451 1452 1452 1453 1454 1454 1455 1455 1455
1442 1441 1439 1438 1437 1436 1435 1434 1433 1433 1432 1432 1432 1432 1432 1433 1433 1434 1434 1435 1435 1436 1436 1437 1437 1438 1439 1439 1440 1441 1442 1442 1443 1444 1445 1446 1446 1447 1448 1448 1449 1449 1450 1450
1438 1437 1436 1435 1434 1432 1431 1430 1430 1429 1429 1428 1428 1428 1428 1429 1429 1430 1430 1431 1431 1432 1432 1433 1433 1434 1435 1435 1436 1436 1437 1438 1438 1439 1440 1440 1441 1442 1442 1443 1443 1444 1444 1445
1435 1434 1432 1431 1430 1429 1428 1427 1426 1425 1425 1425 1424 1424 1424 1425 1425 1425 1426 1427 1428 1428 1428 1429 1429 1430 1430 1431 1431 1432 1432 1433 1433 1434 1434 1435 1436 1436 1437 1438 1438 1439 1439 1439